{"data":{"norad_id":53947,"intl_designator":"2022-120E","name":"YAOGAN-36 01C","alt_names":[],"object_type":"PAYLOAD","status":"ACTIVE","operator":null,"country":"PRC","launch_date":"2022-09-26","launch_site_code":"XICLF","launch_vehicle":null,"mission":null,"orbit_class":"UNKNOWN","rcs_meters":null,"size_class":null,"mass_kg":null,"dimensions":null,"purposes":[],"wikipedia_slug":null,"has_3d_model":false,"image_url":null,"decayed_at":null,"tle_current":{"epoch":"2026-05-25T02:37:38.558784Z","epoch_age_seconds":68890,"freshness":"FRESH","line1":"1 53947U 22120E   26145.10947406  .00021073  00000+0  57011-3 0  9993","line2":"2 53947  35.0046  26.5091 0005436 295.4122  64.6034 15.36771285204244","mean_motion":15.36771285,"eccentricity":0.0005436,"inclination_deg":35.0046,"raan_deg":26.5091,"arg_perigee_deg":295.4122,"mean_anomaly_deg":64.6034,"bstar":0.00057011,"rev_number":20424,"period_min":93.702948126077,"perigee_km":451.94949128407,"apogee_km":459.37920010711,"semimajor_km":6833.8013456956,"source":"CELESTRAK","updated_at":"2026-05-25T13:37:58.482458Z"}}}